Hourly Weather Roundup
Issued by NWS Central Illinois

Home | Current Version | Previous Version | Text Only | Print | Product List | Glossary On
Versions: 1 2 3 4 5 6 7 8 9 10 11 12 13 14 15 16 17 18 19 20 21 22 23 24 25 26 27 28 29 30 31 32 33 34 35 36 37 38 39 40 41 42 43 44 45 46 47 48 49 50
000
NZUS43 KILX 181010
HWRILX

Area Weather Roundup
National Weather Service Lincoln IL
500 AM CDT WED OCT 18 2017

NOTE:  "FAIR" indicates few or no clouds below 12,000 feet, with
       no sigificant weather and/or obstructions to visibility.


CITY           SKY/WX    TMP DP  RH WIND       PRES   REMARKS
Bloomington    CLEAR     44  40  85 S9        30.19R
Champaign      CLEAR     45  39  79 S9        30.21R
Danville       CLEAR     46  40  79 CALM      30.20R
Decatur        CLEAR     48  41  76 S7        30.20R
Effingham      CLEAR     40  40 100 CALM      30.24R
Flora          CLEAR     41  40  97 CALM      30.24R
Galesburg      CLEAR     46  40  80 S6        30.13S
Jacksonville   CLEAR     47  41  78 S7        30.16S
Lacon          CLEAR     48  40  74 S6        30.14R
Lawrenceville  CLEAR     43  41  93 E3        30.25R
Litchfield     CLEAR     41  39  93 S6        30.20R
$$


CITY           SKY/WX    TMP DP  RH WIND       PRES   REMARKS
Lincoln        CLEAR     46  42  88 S7        30.19R
Macomb         CLEAR     47  41  78 S7        30.15R
Mattoon        CLEAR     47  42  83 S7        30.20S
Mt Carmel AP   CLEAR     42  41  97 CALM      30.24S FOG
Olney-Noble AP CLEAR     40  38  93 CALM      30.24S
Paris AP       CLEAR     42  40  93 SE6       30.23S
Peoria         CLEAR     46  41  82 S5        30.16R
Pontiac        CLEAR     46  44  91 S7        30.18S
Rantoul        CLEAR     45  41  85 S3        30.20S
Robinson       CLEAR     36  36 100 CALM      30.25S
Springfield    CLEAR     49  42  77 S8        30.18S
Taylorville    CLEAR     46  41  85 S7        30.20S
$$

...REGIONAL REPORTS...


CITY           SKY/WX    TMP DP  RH WIND       PRES   REMARKS
Chicago O`Hare CLEAR     49  41  74 S7        30.15S
Kankakee       CLEAR     46  40  78 S7        30.20R
Moline         CLEAR     51  40  65 S8        30.08S
Mount Sterling CLEAR     45  40  81 S7        30.13S
Mount Vernon   CLEAR     36  36 100 CALM      30.23S
Pittsfield     CLEAR     49  41  74 S6        30.16S
Quincy         CLEAR     52  40  63 S12       30.13S
Rockford       CLEAR     45  40  82 S5        30.13S
$$


CITY           SKY/WX    TMP DP  RH WIND       PRES   REMARKS
Burlington     CLEAR     50  42  74 S9        30.10S
Cedar Rapids   CLEAR     49  44  83 S8        30.03S
Des Moines     CLEAR     55  46  71 S15       29.98S
Kirksville     CLEAR     50  44  80 S7        30.10S
Ottumwa        CLEAR     51  44  77 S9        30.04S
St Louis       CLEAR     50  42  74 S5        30.19S
$$


CITY           SKY/WX    TMP DP  RH WIND       PRES   REMARKS
Terre Haute    CLEAR     43  39  86 SE3       30.24S
Evansville     CLEAR     42  40  92 CALM      30.26R
Indianapolis   CLEAR     46  41  82 E5        30.26R
Lafayette      CLEAR     41  39  93 E3        30.24R
Madison        CLEAR     51  43  74 S9        30.06S
Milwaukee      CLEAR     52  42  69 SW8       30.10S
$$






USA.gov is the U.S. government's official web portal to all federal, state and local government web resources and services.